Date,TemperatureHighF,TemperatureAvgF,TemperatureLowF,DewpointHighF,DewpointAvgF,DewpointLowF,HumidityHigh,HumidityAvg,HumidityLow,PressureMaxIn,PressureMinIn,WindSpeedMaxMPH,WindSpeedAvgMPH,GustSpeedMaxMPH,PrecipitationSumIn
2013-1-1,44,40,36,34,31,27,77,70,64,30.84,0.00,4,0,0,0.00
2013-1-2,39,35,30,31,23,17,73,62,53,29.99,25.13,5,1,1,0.00
2013-1-3,41,32,27,24,20,17,81,64,52,28.78,27.99,3,0,0,0.00
2013-1-4,45,34,24,27,23,21,86,66,49,27.95,27.95,8,1,0,0.00
2013-1-5,46,37,27,33,25,21,81,64,49,32.23,23.67,6,0,0,0.00
2013-1-6,54,44,30,37,33,27,94,67,50,31.54,0.00,5,0,0,0.00
2013-1-7,47,41,29,33,30,25,86,64,53,0.00,0.00,7,1,0,0.00
2013-1-8,54,40,26,39,33,24,93,77,54,0.00,0.00,3,0,5,0.00
2013-1-9,52,40,30,44,36,28,95,86,55,0.00,0.00,6,0,0,0.01
2013-1-10,56,48,40,36,33,31,73,58,44,27.65,0.00,9,1,0,0.00
2013-1-11,46,41,35,42,37,30,95,84,70,32.43,27.65,2,0,0,0.03
2013-1-12,54,46,43,48,44,42,96,93,82,30.80,0.00,1,0,0,0.00
2013-1-13,55,49,43,55,48,42,98,97,96,27.06,22.34,1,0,0,0.01
2013-1-14,60,54,41,60,49,37,99,84,69,0.00,0.00,4,0,0,0.09
2013-1-15,41,40,36,40,38,35,96,94,89,0.00,0.00,2,0,0,0.65
2013-1-16,42,38,36,41,37,34,100,95,94,25.84,0.00,2,0,0,0.48
2013-1-17,44,42,39,41,36,32,97,83,68,30.46,25.72,6,0,0,0.03
2013-1-18,39,35,30,32,22,15,77,61,43,25.72,25.72,10,1,0,0.00
2013-1-19,55,42,31,35,29,22,77,63,46,0.00,0.00,4,1,4,0.00
2013-1-20,60,47,36,39,27,-100,71,50,28,30.79,0.00,5,-9,6,0.00
2013-1-21,48,38,31,31,22,14,61,53,46,29.85,27.39,7,1,2,0.00
2013-1-22,31,22,18,15,3,-1,53,44,34,0.00,0.00,10,3,0,0.00
2013-1-23,27,21,14,14,4,1,70,49,39,27.42,0.00,8,1,0,0.00
2013-1-24,27,22,18,17,11,6,86,65,41,27.35,27.35,10,1,5,0.00
2013-1-25,24,21,19,18,10,3,84,62,46,27.35,27.35,2,0,0,0.00
2013-1-26,35,29,23,24,22,18,81,74,62,27.35,27.35,3,0,0,0.02
2013-1-27,40,31,25,24,21,19,86,68,53,27.35,27.35,2,0,0,0.01
2013-1-28,46,36,31,43,33,24,95,88,74,27.35,27.35,2,0,0,0.13
2013-1-29,71,53,39,58,48,37,97,83,63,27.35,27.35,2,0,0,0.00
2013-1-30,71,62,47,64,58,45,98,88,75,27.92,27.35,10,1,0,0.18
2013-1-31,64,45,31,63,31,16,98,60,41,27.92,27.92,12,4,0,0.19
2013-2-1,34,27,20,28,14,6,88,58,44,0.00,0.00,11,3,0,0.01
2013-2-2,32,25,17,27,15,6,90,67,48,0.00,0.00,3,0,0,0.00
2013-2-3,34,30,24,30,26,21,94,86,63,0.00,0.00,4,0,0,0.01
2013-2-4,36,32,25,25,19,14,69,61,53,0.00,0.00,7,0,0,0.01
2013-2-5,42,36,30,32,28,24,81,72,65,0.00,0.00,2,0,0,0.18
2013-2-6,47,38,30,33,29,24,90,70,54,0.00,0.00,12,1,0,0.11
2013-2-7,42,35,27,31,27,23,85,74,62,27.41,0.00,3,0,1,0.01
2013-2-8,43,38,33,39,34,25,95,85,63,27.61,20.68,9,1,0,0.26
2013-2-9,41,35,30,25,22,19,70,58,48,27.35,21.28,13,3,6,0.00
2013-2-10,47,35,22,30,22,18,87,61,40,28.10,22.79,2,0,0,0.00
2013-2-11,53,45,38,51,42,31,97,92,74,28.10,22.30,2,0,4,0.31
2013-2-12,58,49,41,41,33,30,94,56,41,31.91,25.05,6,1,0,0.00
2013-2-13,48,40,34,38,32,27,93,76,60,31.91,27.51,2,0,0,0.19
2013-2-14,50,39,30,33,32,29,95,76,51,28.11,27.61,5,0,0,0.02
2013-2-15,62,44,31,42,35,29,95,74,41,27.85,24.81,8,1,0,0.07
2013-2-16,40,37,32,36,31,19,94,79,57,27.61,27.58,4,0,0,0.04
2013-2-17,32,29,25,20,14,9,66,55,43,27.88,22.86,12,4,0,0.00
2013-2-18,43,31,21,20,14,9,62,50,37,27.67,27.67,5,1,0,0.00
2013-2-19,45,40,34,42,32,21,91,74,54,27.88,22.29,4,1,0,0.07
2013-2-20,40,34,26,27,19,11,61,54,46,28.11,22.29,10,3,0,0.00
2013-2-21,40,31,25,21,17,11,63,56,47,28.11,27.45,12,2,0,0.00
2013-2-22,34,32,31,31,25,19,92,74,59,27.80,20.85,2,0,0,0.08
2013-2-23,46,39,33,44,38,31,96,95,92,27.38,27.38,3,0,0,0.08
2013-2-24,53,44,34,42,34,21,93,71,46,28.07,27.36,11,2,0,0.00
2013-2-25,48,38,30,30,25,21,80,62,48,31.97,27.36,4,0,0,0.00
2013-2-26,45,38,29,44,34,25,96,88,74,27.54,27.36,8,0,0,0.52
2013-2-27,56,48,40,45,41,36,97,78,56,28.01,27.51,3,1,0,0.18
2013-2-28,49,44,41,39,33,29,85,65,49,27.67,27.54,7,2,0,0.01
2013-3-1,44,42,38,33,30,27,70,65,56,27.67,27.36,8,2,4,0.00
2013-3-2,38,34,31,27,24,22,72,65,57,27.82,27.36,9,2,0,0.00
2013-3-3,42,35,30,25,22,19,73,61,48,27.82,27.82,10,2,0,0.00
2013-3-4,45,35,29,24,20,17,67,55,43,27.82,27.82,10,3,0,0.00
2013-3-5,54,40,29,32,24,20,77,54,31,27.82,27.82,5,0,0,0.00
2013-3-6,39,36,33,36,34,31,95,91,81,27.82,27.82,10,2,0,1.14
2013-3-7,50,43,36,34,32,30,81,66,50,27.82,27.82,11,2,0,0.04
2013-3-8,50,43,37,33,30,28,73,61,51,28.04,27.42,13,2,0,0.00
2013-3-9,62,46,35,33,30,26,75,55,32,27.85,24.80,4,0,0,0.00
2013-3-10,65,48,30,38,31,26,91,57,26,0.00,40.00,2,0,0,0.00
2013-3-11,62,52,43,53,46,38,91,80,69,27.82,0.00,4,0,0,0.00
2013-3-12,58,54,43,57,47,34,97,79,63,27.82,21.96,8,2,0,0.20
2013-3-13,50,42,31,36,30,21,90,63,39,21.96,21.96,12,2,0,0.07
2013-3-14,46,38,33,23,20,17,60,49,37,27.89,21.96,10,3,0,0.02
2013-3-15,59,44,27,35,28,21,81,56,37,27.89,22.26,5,1,0,0.24
2013-3-16,63,48,39,52,39,33,82,71,55,25.21,21.49,5,0,0,0.02
2013-3-17,42,39,36,35,32,29,84,75,63,21.49,21.49,2,0,0,0.00
2013-3-18,39,37,32,37,32,25,95,82,61,28.04,21.49,4,0,0,0.19
2013-3-19,60,47,37,42,33,15,95,66,24,28.04,28.04,12,2,0,0.12
2013-3-20,54,46,38,25,20,16,49,35,30,28.04,28.04,9,2,6,0.00
2013-3-21,42,35,30,28,18,12,77,51,41,31.58,27.36,9,2,0,0.00
2013-3-22,48,36,25,24,19,13,65,50,38,27.58,27.39,9,1,0,0.00
2013-3-23,55,42,27,29,25,21,78,53,36,27.58,27.58,10,1,0,0.00
2013-3-24,45,39,33,33,27,23,92,64,49,27.67,0.00,2,0,0,0.04
2013-3-25,38,35,32,36,33,31,95,93,90,27.77,24.84,6,0,1,0.47
2013-3-26,50,42,34,36,33,30,94,71,49,32.20,0.00,11,2,0,0.00
2013-3-27,50,44,38,33,31,29,72,60,49,32.20,22.44,11,3,0,0.00
2013-3-28,48,44,39,34,31,28,67,62,53,32.20,27.41,9,2,0,0.00
2013-3-29,57,48,40,36,33,30,70,58,42,27.52,20.13,10,1,3,0.00
2013-3-30,61,49,35,38,33,30,85,58,32,27.60,27.36,5,0,0,0.00
2013-3-31,56,48,41,51,42,32,93,79,61,27.60,27.35,5,0,1,0.01
2013-4-1,66,50,39,48,40,27,97,70,45,27.45,27.45,11,2,0,0.00
2013-4-2,51,44,36,26,20,18,56,41,29,27.85,27.45,10,2,0,0.00
2013-4-3,53,42,29,23,20,17,69,44,28,27.85,23.25,12,2,0,0.00
2013-4-4,52,42,27,37,24,18,91,52,33,27.75,27.75,4,0,2,0.07
2013-4-5,66,50,38,40,36,27,95,64,32,27.75,27.75,8,1,1,0.20
2013-4-6,60,49,39,34,27,23,66,44,33,27.75,27.75,6,0,0,0.00
2013-4-7,72,56,40,47,40,33,80,57,39,27.75,27.75,5,1,0,0.00
2013-4-8,84,67,49,55,50,43,81,55,36,27.75,27.75,2,0,0,0.00
2013-4-9,90,74,58,62,57,51,82,57,38,27.75,27.75,4,0,4,0.00
2013-4-10,93,79,61,65,60,54,81,53,37,27.75,27.75,6,0,2,0.00
2013-4-11,88,74,57,67,60,54,87,66,45,27.75,27.75,4,0,1,0.00
2013-4-12,74,61,53,70,59,51,99,92,80,32.12,27.75,5,1,0,0.77
2013-4-13,72,59,44,54,46,41,89,64,38,32.12,23.70,4,0,0,0.00
2013-4-14,69,58,44,47,44,40,88,62,41,23.70,23.70,4,0,0,0.00
2013-4-15,64,59,55,54,50,47,82,72,66,23.70,23.70,5,0,0,0.00
2013-4-16,78,65,56,63,57,50,87,76,60,23.70,23.70,5,0,0,0.00
2013-4-17,79,68,58,67,61,57,97,80,61,23.70,23.70,5,0,0,0.00
2013-4-18,80,68,60,68,61,57,96,81,61,23.70,23.70,2,0,0,0.01
2013-4-19,81,69,51,70,63,50,97,84,66,23.70,23.70,5,1,0,0.64
2013-4-20,61,54,47,49,37,30,94,55,38,29.37,23.32,7,2,0,0.42
2013-4-21,55,48,41,36,30,25,68,49,38,28.73,21.92,7,1,0,0.06
2013-4-22,57,49,40,42,38,34,82,68,55,25.64,23.01,5,1,0,0.00
2013-4-23,62,53,47,48,44,39,85,73,58,23.01,23.01,4,0,0,0.00
2013-4-24,80,62,44,62,52,42,96,73,48,23.01,23.01,9,1,0,0.00
2013-4-25,66,56,47,52,39,34,70,54,34,23.01,23.01,13,2,0,0.00
2013-4-26,68,57,43,44,41,38,87,58,37,23.01,23.01,5,0,0,0.00
2013-4-27,73,59,44,49,44,41,90,60,41,23.01,23.01,5,0,1,0.00
2013-4-28,68,58,46,53,46,43,91,67,42,27.60,23.01,3,0,0,0.00
2013-4-29,60,57,54,59,55,46,98,93,66,0.00,0.00,5,0,0,0.24
2013-4-30,61,57,55,58,55,49,97,92,74,0.00,0.00,6,1,0,0.02
2013-5-1,71,60,50,51,46,42,83,63,38,25.60,0.00,6,0,0,0.00
2013-5-2,68,57,46,53,48,44,94,75,55,0.00,0.00,4,0,0,0.00
2013-5-3,67,57,48,50,46,42,92,70,46,0.00,0.00,9,1,0,0.00
2013-5-4,68,58,49,50,46,42,85,67,49,0.00,0.00,7,1,0,0.00
2013-5-5,63,54,46,49,45,40,83,70,57,0.00,0.00,6,1,4,0.00
2013-5-6,63,56,51,59,52,46,94,88,81,0.00,0.00,6,0,1,0.00
2013-5-7,64,61,59,63,60,57,97,96,93,0.00,0.00,10,1,0,0.45
2013-5-8,71,61,57,61,58,56,98,90,64,0.00,0.00,1,0,0,0.06
2013-5-9,74,62,55,66,59,54,97,90,65,0.00,0.00,4,0,0,0.45
2013-5-10,85,71,54,69,63,54,99,78,52,0.00,0.00,5,0,4,0.14
2013-5-11,80,68,63,69,65,63,99,91,67,18.07,18.07,2,0,1,0.35
2013-5-12,65,61,53,64,45,34,97,59,37,0.00,0.00,7,2,0,0.04
2013-5-13,61,53,41,39,34,30,84,51,34,0.00,0.00,9,1,7,0.00
2013-5-14,66,54,38,44,38,33,87,57,38,27.23,0.00,6,0,0,0.00
2013-5-15,88,68,54,68,57,45,85,69,52,26.13,0.00,2,0,0,0.00
2013-5-16,84,75,62,67,64,59,90,69,53,26.13,26.13,5,0,0,0.00
2013-5-17,85,74,59,63,58,54,92,60,40,26.13,26.13,5,0,0,0.00
2013-5-18,67,63,60,61,58,53,94,83,61,26.13,26.13,1,0,0,0.05
2013-5-19,77,68,60,69,65,58,99,91,76,26.13,26.13,4,0,2,0.01
2013-5-20,84,72,65,73,68,64,97,88,71,16.91,0.00,1,0,0,0.01
2013-5-21,86,75,68,75,70,67,96,87,69,0.00,0.00,1,0,0,0.00
2013-5-22,88,78,70,77,72,68,97,84,66,0.00,0.00,3,0,0,0.03
2013-5-23,82,74,65,72,70,63,97,87,69,0.00,0.00,3,0,0,0.11
2013-5-24,65,58,50,64,51,38,98,78,59,0.00,0.00,9,2,0,0.02
2013-5-25,67,56,45,44,39,35,69,55,39,32.25,0.00,10,3,0,0.00
2013-5-26,74,62,51,46,42,38,69,49,34,32.25,22.31,8,1,0,0.00
2013-5-27,72,63,48,53,48,43,82,59,39,22.31,22.31,2,0,0,0.00
2013-5-28,86,69,59,73,63,52,98,82,62,22.31,22.31,3,0,0,0.76
2013-5-29,89,77,65,75,70,65,99,81,54,22.31,22.31,3,0,0,0.01
2013-5-30,92,80,68,75,71,65,93,73,55,22.31,22.31,2,0,0,0.00
2013-5-31,92,80,66,73,70,65,94,71,52,22.31,22.31,4,0,1,0.00
2013-6-1,92,82,70,75,71,66,87,69,55,22.31,22.31,2,0,1,0.00
2013-6-2,86,79,71,75,71,67,97,77,68,22.31,22.31,7,0,3,0.12
2013-6-3,82,73,67,72,69,61,99,87,68,22.31,22.31,5,0,0,0.57
2013-6-4,78,69,61,61,53,48,76,58,41,22.31,22.31,5,1,4,0.00
2013-6-5,81,70,55,64,58,53,93,68,51,22.31,22.31,3,0,0,0.00
2013-6-6,75,68,62,67,63,57,97,82,69,0.00,0.00,1,0,0,0.53
2013-6-7,70,69,66,70,68,65,100,99,96,0.00,0.00,6,0,0,2.09
2013-6-8,81,71,65,68,65,62,96,82,61,32.27,0.00,3,0,0,0.01
2013-6-9,82,74,66,74,68,63,95,83,64,32.27,32.27,4,0,0,0.02
2013-6-10,78,73,69,77,72,69,100,97,91,32.27,32.27,2,0,0,1.93
2013-6-11,84,75,66,73,68,66,100,82,64,32.27,32.27,6,1,0,0.28
2013-6-12,90,80,68,74,70,64,89,72,53,32.27,32.27,6,1,0,0.00
2013-6-13,88,77,70,76,70,60,94,80,61,32.27,32.27,9,1,0,0.00
2013-6-14,80,71,61,62,59,55,90,67,50,32.27,32.11,7,1,0,0.02
2013-6-15,84,75,65,64,61,58,79,64,47,32.11,32.11,4,0,0,0.00
2013-6-16,85,76,66,73,68,62,89,76,61,32.11,32.11,1,0,0,0.00
2013-6-17,88,79,70,76,72,68,93,79,64,32.11,32.11,2,0,0,0.00
2013-6-18,78,73,66,74,70,65,96,91,82,32.11,32.11,2,0,0,0.20
2013-6-19,77,70,65,66,65,62,97,82,67,32.11,32.11,2,0,0,0.00
2013-6-20,80,72,62,68,64,57,98,76,59,32.11,32.11,2,0,0,0.00
2013-6-21,83,73,59,67,60,56,93,67,44,32.13,32.11,5,0,0,0.00
2013-6-22,88,77,64,73,68,63,97,76,60,32.13,32.13,1,0,0,0.00
2013-6-23,85,76,71,77,72,68,98,88,76,32.13,32.13,0,0,0,0.60
2013-6-24,90,79,71,79,74,70,99,86,55,32.13,32.13,7,0,0,0.02
2013-6-25,93,82,69,79,74,67,98,79,60,32.13,32.13,4,0,0,0.01
2013-6-26,91,80,70,79,73,68,94,79,65,32.13,31.75,2,0,0,0.01
2013-6-27,84,75,71,77,72,69,97,90,78,31.75,31.75,1,0,0,0.25
2013-6-28,89,75,67,77,72,65,100,90,67,31.75,31.75,15,0,0,2.43
2013-6-29,88,77,67,74,70,67,100,81,57,31.75,31.75,2,0,0,0.01
2013-6-30,87,78,74,79,76,72,98,92,77,31.75,31.75,2,0,0,0.31
2013-7-1,83,76,72,77,74,71,99,93,80,31.75,31.75,1,0,0,0.42
2013-7-2,82,77,73,77,74,72,97,93,83,31.75,31.75,1,0,0,0.13
2013-7-3,86,78,72,80,75,71,100,92,79,31.75,26.93,1,0,0,0.12
2013-7-4,90,81,75,79,76,74,97,84,65,26.93,26.92,2,0,0,0.00
2013-7-5,91,83,74,79,76,73,95,81,66,26.93,26.93,2,0,0,0.00
2013-7-6,93,83,76,80,77,74,95,82,62,26.93,26.92,1,0,0,0.00
2013-7-7,92,82,72,80,75,70,96,81,67,26.93,26.93,3,0,0,0.05
2013-7-8,86,77,72,76,72,70,98,86,65,26.93,26.92,3,0,0,0.06
2013-7-9,85,79,73,78,75,71,96,87,74,26.93,26.93,0,0,0,0.00
2013-7-10,89,80,73,82,77,72,98,89,74,26.93,26.93,1,0,0,0.32
2013-7-11,85,78,73,75,73,71,98,87,68,26.93,26.93,2,0,0,0.01
2013-7-12,77,71,68,74,69,67,98,94,82,26.93,26.93,5,0,0,1.57
2013-7-13,86,77,71,78,73,69,98,88,76,26.93,26.93,4,0,0,0.08
2013-7-14,90,81,73,80,76,73,100,85,66,26.93,26.92,1,0,0,0.01
2013-7-15,95,83,72,80,76,71,97,80,58,26.93,26.93,3,0,0,0.00
2013-7-16,95,87,80,80,76,73,85,71,54,26.93,26.92,4,0,4,0.00
2013-7-17,94,85,76,80,76,73,91,75,56,26.93,26.93,1,0,0,0.00
2013-7-18,96,87,77,83,80,75,95,79,63,31.39,26.93,5,0,0,0.00
2013-7-19,97,88,80,83,80,76,90,78,63,31.39,31.38,2,0,0,0.00
2013-7-20,95,86,79,81,78,76,90,78,59,31.38,31.38,2,0,0,0.00
2013-7-21,91,83,75,77,75,71,91,77,62,31.38,31.38,3,0,0,0.00
2013-7-22,91,82,75,80,76,72,95,83,68,31.38,31.38,3,0,0,0.00
2013-7-23,88,80,74,76,73,70,98,81,60,31.38,31.38,5,1,0,0.02
2013-7-24,85,79,73,72,69,63,87,73,59,31.38,31.38,6,1,1,0.00
2013-7-25,82,73,65,68,61,55,78,67,55,31.38,31.38,5,0,0,0.00
2013-7-26,85,75,65,68,65,62,91,72,54,31.38,31.38,1,0,0,0.00
2013-7-27,86,75,69,74,70,67,98,86,66,31.38,31.34,3,0,0,0.31
2013-7-28,84,74,68,76,72,68,99,92,74,31.34,31.34,1,0,0,0.04
2013-7-29,84,74,66,71,64,60,95,72,48,31.34,31.34,4,0,0,0.00
2013-7-30,84,74,63,67,63,59,88,69,53,31.34,31.34,2,0,0,0.00
2013-7-31,82,74,67,73,69,65,96,84,68,31.34,31.34,1,0,0,0.02
2013-8-1,81,73,68,75,71,68,99,94,83,31.34,31.34,1,0,0,0.40
2013-8-2,86,77,66,71,69,65,97,78,60,31.34,31.34,2,0,0,0.00
2013-8-3,80,73,69,71,68,67,94,84,66,31.34,31.34,3,0,1,0.00
2013-8-4,82,73,66,68,63,58,97,72,50,32.13,31.34,7,1,0,0.00
2013-8-5,82,71,60,63,60,56,85,68,48,32.13,32.13,4,0,0,0.00
2013-8-6,73,70,68,69,67,62,94,89,81,32.13,32.13,1,0,0,0.02
2013-8-7,84,76,70,76,72,68,94,85,74,32.13,32.13,4,0,0,0.00
2013-8-8,87,80,75,78,75,73,92,85,73,32.13,32.13,1,0,0,0.00
2013-8-9,92,84,77,80,77,74,92,79,65,32.13,32.13,3,0,0,0.00
2013-8-10,84,79,72,74,71,68,93,78,64,32.13,32.13,4,0,0,0.01
2013-8-11,86,78,72,74,71,68,92,80,63,32.13,29.20,1,0,0,0.00
2013-8-12,90,81,72,76,72,69,95,76,51,30.62,29.20,6,0,0,0.00
2013-8-13,86,79,71,76,73,69,98,83,64,30.62,29.63,5,0,0,0.26
2013-8-14,75,68,62,71,57,52,98,67,55,29.63,29.63,8,2,0,0.01
2013-8-15,78,68,59,61,56,54,84,67,44,32.11,25.16,2,0,0,0.00
2013-8-16,78,69,57,63,59,56,96,72,53,31.87,31.33,2,0,0,0.00
2013-8-17,79,71,60,66,62,58,94,74,55,31.87,31.87,2,0,1,0.00
2013-8-18,72,69,64,67,65,62,96,87,72,31.87,31.87,1,0,0,0.20
2013-8-19,74,69,62,69,66,61,97,90,82,31.87,30.44,2,0,0,0.00
2013-8-20,87,77,65,75,71,64,98,83,64,30.44,30.44,2,0,0,0.00
2013-8-21,89,79,70,77,74,69,98,84,63,30.44,30.44,2,0,0,0.09
2013-8-22,87,80,72,74,72,70,99,78,59,30.44,30.44,5,1,0,0.00
2013-8-23,78,72,63,72,67,58,97,83,60,30.44,29.14,2,0,0,0.11
2013-8-24,82,72,61,66,63,60,97,74,51,29.14,29.14,5,0,0,0.00
2013-8-25,82,72,61,68,62,58,97,74,52,29.14,29.14,2,0,1,0.00
2013-8-26,88,75,62,70,65,58,91,72,52,29.14,29.14,4,0,0,0.00
2013-8-27,91,80,72,76,72,67,86,75,58,32.20,29.14,5,0,0,0.00
2013-8-28,80,76,74,76,73,70,96,90,79,32.13,31.41,0,0,0,0.05
2013-8-29,84,77,73,74,72,71,97,84,66,31.66,31.48,4,0,0,0.01
2013-8-30,86,78,72,75,72,69,92,81,67,31.48,31.48,1,0,0,0.00
2013-8-31,90,80,72,77,74,70,93,81,65,31.48,31.48,1,0,0,0.00
2013-9-1,90,81,70,77,73,68,95,79,59,31.48,28.54,1,0,0,0.00
2013-9-2,89,80,72,78,74,70,99,84,65,32.04,28.54,3,0,0,0.10
2013-9-3,85,79,72,75,67,59,93,69,51,32.04,31.88,5,1,0,0.00
2013-9-4,83,72,63,64,60,57,81,65,44,31.88,31.88,7,0,0,0.00
2013-9-5,84,74,61,67,62,54,92,67,51,31.88,31.76,7,1,0,0.00
2013-9-6,76,68,60,58,53,48,73,59,48,31.76,31.76,4,0,0,0.00
2013-9-7,75,72,68,66,65,64,87,79,72,31.76,31.76,0,0,0,0.00
2013-9-8,87,77,66,71,67,62,94,73,56,31.76,31.76,4,0,0,0.00
2013-9-9,80,73,65,70,62,53,87,69,63,31.76,31.76,2,0,0,0.00
2013-9-10,91,80,73,78,74,70,93,81,63,31.76,29.06,1,0,0,0.00
2013-9-11,93,84,74,80,76,73,96,78,57,29.06,29.06,4,0,0,0.00
2013-9-12,92,78,71,78,71,-100,98,83,59,30.94,29.06,7,-10,0,0.21
2013-9-13,78,71,63,70,62,53,98,74,48,31.35,30.94,5,1,0,0.00
2013-9-14,69,62,54,53,50,47,81,66,52,31.35,31.35,7,1,0,0.00
2013-9-15,76,64,49,60,54,47,95,74,56,32.32,0.00,4,0,1,0.00
2013-9-16,73,65,60,63,60,56,93,82,64,32.32,21.81,6,0,0,0.04
2013-9-17,68,60,52,57,48,44,90,67,43,23.99,21.81,5,0,2,0.00
2013-9-18,71,59,47,55,50,45,96,74,49,0.00,0.00,1,0,0,0.00
2013-9-19,77,65,52,62,57,50,97,77,59,29.33,0.00,1,0,0,0.00
2013-9-20,80,68,56,66,60,54,96,79,62,29.33,29.33,2,0,0,0.00
2013-9-21,77,68,61,68,63,58,98,86,67,29.33,29.33,1,0,0,0.84
2013-9-22,72,65,58,63,58,51,97,78,59,29.33,29.33,9,0,0,0.01
2013-9-23,65,59,52,51,49,46,85,69,58,29.33,28.94,4,0,0,0.00
2013-9-24,71,58,47,55,50,45,94,74,51,28.94,25.95,4,0,0,0.00
2013-9-25,74,60,49,55,51,47,96,73,42,25.95,20.09,2,0,0,0.00
2013-9-26,74,63,56,58,56,54,93,78,55,20.09,20.09,2,0,0,0.00
2013-9-27,72,64,55,62,58,53,95,83,66,0.00,0.00,1,0,0,0.00
2013-9-28,70,63,57,59,57,55,91,79,64,0.00,0.00,4,0,0,0.00
2013-9-29,72,62,52,61,56,50,97,82,64,29.97,0.00,1,0,0,0.00
2013-9-30,73,63,52,61,56,50,97,79,59,0.00,0.00,1,0,0,0.00
2013-10-1,81,67,56,65,60,54,95,80,55,0.00,0.00,2,0,0,0.00
2013-10-2,85,71,58,67,62,56,97,77,53,0.00,0.00,6,0,0,0.00
2013-10-3,83,72,60,70,65,59,96,80,59,30.82,0.00,1,0,0,0.00
2013-10-4,86,74,62,71,67,61,98,81,58,30.82,30.37,3,0,0,0.00
2013-10-5,87,76,66,72,69,64,97,80,60,30.37,30.37,0,0,0,0.00
2013-10-6,88,76,66,73,69,64,97,80,57,31.53,30.37,2,0,1,0.00
2013-10-7,77,67,55,73,65,51,98,91,80,31.53,30.92,3,0,1,1.02
2013-10-8,66,59,51,52,50,48,87,73,60,30.92,30.92,3,0,1,0.00
2013-10-9,61,58,55,54,52,49,93,80,73,30.92,30.92,3,0,0,0.15
2013-10-10,58,56,54,58,55,52,98,96,92,30.92,0.00,2,0,0,1.44
2013-10-11,62,60,56,62,60,56,100,98,98,32.46,0.00,3,0,0,2.47
2013-10-12,67,62,60,63,61,60,99,95,83,21.12,21.12,3,0,0,0.28
2013-10-13,64,61,58,61,59,55,97,91,84,32.14,0.00,2,0,0,0.02
2013-10-14,68,61,55,59,56,53,94,84,70,24.44,24.41,5,0,0,0.00
2013-10-15,70,61,51,60,54,50,98,80,50,24.41,21.28,4,0,0,0.00
2013-10-16,72,65,61,66,62,58,95,88,77,24.88,21.28,0,0,0,0.00
2013-10-17,76,67,60,68,64,60,98,88,73,0.00,0.00,4,0,0,0.00
2013-10-18,65,58,50,58,48,46,90,71,54,0.00,0.00,6,1,0,0.00
2013-10-19,65,57,47,60,53,45,96,88,70,0.00,0.00,2,0,0,0.00
2013-10-20,62,54,45,53,42,38,90,66,46,0.00,0.00,8,1,4,0.00
2013-10-21,66,53,41,51,46,39,97,78,50,0.00,0.00,1,0,0,0.00
2013-10-22,64,55,46,55,48,40,96,79,58,25.64,0.00,5,0,0,0.00
2013-10-23,57,51,45,44,41,38,92,71,50,25.64,25.64,5,1,0,0.10
2013-10-24,51,45,39,38,34,31,84,68,50,25.64,23.84,5,0,0,0.00
2013-10-25,54,45,34,37,34,31,92,67,52,22.50,0.00,7,1,0,0.00
2013-10-26,55,45,31,38,34,29,92,68,49,22.50,22.50,4,0,0,0.00
2013-10-27,60,49,39,43,39,36,90,72,50,22.50,22.50,8,0,0,0.00
2013-10-28,63,49,38,48,42,36,95,80,53,22.50,22.50,2,0,0,0.00
2013-10-29,62,50,40,48,44,39,99,81,56,0.00,0.00,2,0,0,0.00
2013-10-30,63,55,50,58,52,46,97,92,82,0.00,0.00,0,0,0,0.04
2013-10-31,69,61,53,63,59,52,98,91,80,0.00,0.00,1,0,0,0.01
2013-11-1,72,66,59,66,63,58,97,87,77,31.12,0.00,5,0,0,0.07
2013-11-2,68,59,50,59,50,42,97,75,55,31.12,31.12,6,0,0,0.00
2013-11-3,57,49,42,44,37,28,89,64,37,31.12,31.12,7,1,0,0.00
2013-11-4,46,40,35,31,27,23,79,58,48,31.12,31.12,6,0,0,0.00
2013-11-5,58,48,37,49,41,32,86,76,67,31.12,31.12,2,0,0,0.00
2013-11-6,69,58,51,57,52,48,93,81,64,31.12,31.12,2,0,0,0.00
2013-11-7,63,54,45,58,48,28,97,80,50,31.12,31.12,12,1,0,0.00
2013-11-8,51,42,32,34,30,28,88,65,44,31.12,31.12,9,1,0,0.00
2013-11-9,55,43,29,36,32,27,92,67,46,31.12,31.12,5,0,0,0.00
2013-11-10,64,48,36,43,34,30,88,61,37,31.12,31.12,7,1,0,0.00
2013-11-11,58,48,34,38,34,29,85,58,45,0.00,0.00,2,0,0,0.00
2013-11-12,51,42,33,41,27,18,76,57,46,0.00,0.00,8,1,0,0.00
2013-11-13,42,35,29,25,22,20,70,59,49,0.00,0.00,9,1,0,0.00
2013-11-14,57,38,25,33,26,20,85,65,35,0.00,0.00,1,0,0,0.00
2013-11-15,61,43,28,44,33,26,92,70,39,0.00,0.00,1,0,0,0.08
2013-11-16,52,50,45,51,48,44,100,95,92,0.00,0.00,0,0,0,0.34
2013-11-17,65,58,51,60,56,50,98,92,83,0.00,0.00,1,0,1,0.00
2013-11-18,69,60,51,62,44,31,98,62,29,25.54,0.00,7,2,0,0.13
2013-11-19,51,45,40,31,29,26,61,53,46,31.46,25.54,11,2,0,0.00
2013-11-20,48,39,33,31,27,24,85,62,48,31.46,31.46,1,0,3,0.00
2013-11-21,51,42,32,41,36,29,95,77,67,0.00,0.00,0,0,0,0.00
2013-11-22,62,54,44,55,48,40,92,83,74,0.00,0.00,5,0,0,0.00
2013-11-23,58,46,33,52,31,16,78,57,42,0.00,0.00,11,3,0,0.00
2013-11-24,33,28,24,16,10,7,53,46,40,0.00,0.00,11,2,0,0.00
2013-11-25,38,30,22,18,13,9,59,50,40,0.00,0.00,3,0,0,0.00
2013-11-26,46,37,34,45,30,17,97,79,49,0.00,0.00,9,0,0,1.54
2013-11-27,40,37,30,38,33,18,96,85,61,0.00,0.00,10,2,0,0.73
2013-11-28,38,31,25,26,20,16,83,63,49,0.00,0.00,7,1,0,0.00
2013-11-29,42,34,24,25,23,21,91,68,50,0.00,0.00,5,0,0,0.00
2013-11-30,38,33,27,27,23,20,79,69,58,0.00,0.00,0,0,0,0.00
2013-12-1,50,37,24,35,30,22,94,76,56,0.00,0.00,3,0,0,0.00
2013-12-2,48,44,40,43,38,34,83,79,75,0.00,0.00,1,0,0,0.00
2013-12-3,58,46,39,44,39,36,91,78,59,28.94,0.00,1,0,0,0.00
2013-12-4,57,48,39,50,44,37,93,87,77,28.94,28.94,0,0,0,0.00
2013-12-5,70,60,52,62,57,50,95,90,76,28.94,28.94,4,0,0,0.00
2013-12-6,64,52,40,63,50,38,97,95,93,0.00,0.00,7,1,0,0.60
2013-12-7,43,38,32,38,32,24,95,79,65,0.00,0.00,5,1,0,0.17
2013-12-8,32,30,28,30,26,22,95,84,70,0.00,0.00,2,0,0,0.12
2013-12-9,36,33,32,35,32,31,96,96,95,0.00,0.00,0,0,0,1.15
2013-12-10,37,32,26,34,30,24,96,92,75,0.00,0.00,7,0,0,0.23
2013-12-11,42,30,20,29,24,19,95,83,57,0.00,0.00,2,0,0,0.12
2013-12-12,32,28,23,25,18,14,93,67,50,0.00,0.00,7,0,0,0.00
2013-12-13,42,33,23,26,21,17,81,64,45,20.39,0.00,2,0,0,0.05
2013-12-14,40,36,32,37,32,26,100,85,77,20.39,20.39,5,0,3,0.49
2013-12-15,47,38,29,39,32,24,95,79,62,20.39,20.39,18,1,0,0.00
2013-12-16,38,35,31,28,27,25,83,71,64,20.39,20.39,5,0,0,0.00
2013-12-17,38,36,34,35,31,27,90,82,77,20.39,20.39,4,0,0,0.01
2013-12-18,42,34,27,32,27,24,94,75,54,0.00,0.00,5,0,0,0.01
2013-12-19,60,42,26,38,30,23,91,67,41,0.00,0.00,3,0,0,0.00
2013-12-20,59,51,39,50,38,31,76,61,50,0.00,0.00,5,0,0,0.00
2013-12-21,71,62,54,62,54,45,85,75,65,0.00,0.00,6,1,0,0.00
2013-12-22,70,65,60,65,62,59,97,90,80,0.00,0.00,5,1,0,0.23
2013-12-23,63,55,40,63,51,31,99,89,69,0.00,0.00,7,1,0,0.79
2013-12-24,40,35,24,30,22,11,71,61,48,0.00,0.00,9,2,0,0.00
2013-12-25,34,26,21,20,15,11,79,61,49,27.00,0.00,5,0,0,0.00
2013-12-26,46,31,23,29,24,20,87,75,51,27.00,27.00,3,0,0,0.00
2013-12-27,51,34,24,30,26,21,92,72,43,27.00,27.00,1,0,0,0.00
2013-12-28,57,39,25,36,30,23,93,71,43,27.00,27.00,2,0,0,0.00
2013-12-29,48,44,38,47,41,32,97,89,58,27.00,27.00,5,0,0,1.32
2013-12-30,46,38,34,42,33,24,100,81,67,27.00,27.00,6,0,0,0.00
2013-12-31,46,36,30,33,24,19,77,63,49,27.00,27.00,6,1,0,0.00
2014-1-1,48,36,26,33,27,20,89,72,54,27.00,27.00,4,0,0,0.00
2014-1-2,38,33,30,34,31,29,95,91,85,0.00,0.00,1,0,0,0.07